DW0416 Weather Reports


Display with metric or nautical units.
time (UTC)temp
F
wind
direction
speed
MPH
gust
MPH
rain 1hr
in
rain 24hr
in
rain mn
in
humidity
%
barometer
mb
20260503021524 59 334 2.0 6.0 0.00 0.00 0.00 26 1019.0
20260503020030 60 56 1.0 3.0 0.00 0.00 0.00 27 1018.9
20260503014524 63 51 1.0 2.0 0.00 0.00 0.00 24 1018.8
20260503013012 63 281 2.0 5.0 0.00 0.00 0.00 23 1018.7
20260503011518 64 250 1.0 3.0 0.00 0.00 0.00 20 1018.7
20260503010034 64 219 0.0 2.0 0.00 0.00 0.00 21 1018.9
20260503004551 63 193 1.0 7.0 0.00 0.00 0.00 21 1018.9
20260503003026 64 243 5.0 12.0 0.00 0.00 0.00 20 1019.0
20260503001514 65 356 2.0 5.0 0.00 0.00 0.00 20 1018.9
20260503000031 65 275 6.0 10.0 0.00 0.00 0.00 18 1019.1
20260502234528 66 311 5.0 9.0 0.00 0.00 0.00 17 1018.9
20260502233028 65 49 5.0 9.0 0.00 0.00 0.00 19 1018.7
20260502231527 65 288 5.0 9.0 0.00 0.00 0.00 20 1019.0
20260502230021 65 348 4.0 8.0 0.00 0.00 0.00 22 1019.1
20260502224522 64 290 4.0 7.0 0.00 0.00 0.00 22 1019.3
20260502223026 63 347 1.0 8.0 0.00 0.00 0.00 21 1019.5
20260502221526 65 297 2.0 7.0 0.00 0.00 0.00 19 1019.8
20260502220029 65 290 2.0 8.0 0.00 0.00 0.00 19 1020.0
20260502214516 65 226 2.0 7.0 0.00 0.00 0.00 19 1020.2
20260502213021 65 289 4.0 11.0 0.00 0.00 0.00 20 1020.5
20260502211524 64 209 2.0 10.0 0.00 0.00 0.00 21 1020.8
20260502210009 65 274 5.0 12.0 0.00 0.00 0.00 20 1021.0
20260502204514 64 273 4.0 8.0 0.00 0.00 0.00 21 1021.1
20260502203020 63 17 4.0 10.0 0.00 0.00 0.00 20 1021.3
20260502201503 63 293 4.0 10.0 0.00 0.00 0.00 24 1021.5
20260502200008 62 278 5.0 11.0 0.00 0.00 0.00 22 1021.7
20260502194513 63 268 5.0 12.0 0.00 0.00 0.00 20 1021.8
20260502193016 64 168 3.0 6.0 0.00 0.00 0.00 21 1021.7
20260502191523 61 49 3.0 11.0 0.00 0.00 0.00 22 1021.9
20260502190012 63 79 2.0 9.0 0.00 0.00 0.00 21 1022.2
20260502184525 62 157 1.0 6.0 0.00 0.00 0.00 25 1022.5
20260502183028 63 151 3.0 7.0 0.00 0.00 0.00 23 1022.7
20260502181521 60 310 2.0 5.0 0.00 0.00 0.00 23 1022.9
20260502163013 48 82 1.0 2.0 0.00 0.00 0.00 43 1024.4
20260502161517 46 180 0.0 3.0 0.00 0.00 0.00 45 1024.6
20260502151514 37 283 0.0 1.0 0.00 0.00 0.00 57 1025.2
20260502123034 26 23 0.0 0.0 0.00 0.00 0.00 75 1025.1
20260502121524 27 23 0.0 0.0 0.00 0.00 0.00 74 1025.0
20260502114504 27 62 0.0 1.0 0.00 0.00 0.00 73 1025.0
20260502113004 28 62 0.0 1.0 0.00 0.00 0.00 72 1025.0
20260502111515 28 62 0.0 1.0 0.00 0.00 0.00 72 1024.9
20260502110009 28 351 0.0 1.0 0.00 0.00 0.00 71 1025.0
20260502104504 29 351 0.0 1.0 0.00 0.00 0.00 69 1025.0
20260502103005 29 359 0.0 1.0 0.00 0.00 0.00 70 1024.9
20260502101505 29 86 0.0 1.0 0.00 0.00 0.00 69 1024.8
20260502091506 31 73 0.0 0.0 0.00 0.00 0.00 65 1024.7
20260502071503 35 95 1.0 2.0 0.00 0.00 0.00 56 1024.3
20260502070010 35 294 0.0 1.0 0.00 0.00 0.00 55 1024.3
20260502064511 37 287 0.0 1.0 0.00 0.00 0.00 52 1024.1
20260502063024 38 68 0.0 1.0 0.00 0.00 0.00 49 1023.8
20260502061509 38 49 1.0 2.0 0.00 0.00 0.00 49 1023.7
20260502060008 39 45 0.0 1.0 0.00 0.00 0.00 48 1023.5
20260502054515 39 45 0.0 2.0 0.00 0.00 0.00 47 1023.4
20260502053012 40 84 0.0 0.0 0.00 0.00 0.00 46 1023.4
20260502051512 40 100 0.0 1.0 0.00 0.00 0.00 45 1023.2
20260502050014 41 302 0.0 1.0 0.00 0.00 0.00 43 1023.3
20260502044516 43 301 0.0 3.0 0.00 0.00 0.00 39 1023.2
20260502043014 44 159 0.0 3.0 0.00 0.00 0.00 37 1023.1
20260502041514 45 43 0.0 1.0 0.00 0.00 0.00 34 1023.0
20260502040012 48 348 0.0 2.0 0.00 0.00 0.00 33 1022.9
20260502034518 50 53 5.0 8.0 0.00 0.00 0.00 26 1022.8
20260502033017 49 21 6.0 8.0 0.00 0.00 0.00 29 1022.5
20260502031516 50 188 0.0 5.0 0.00 0.00 0.00 30 1022.3
20260502030018 52 92 0.0 2.0 0.00 0.00 0.00 27 1022.1
20260502024520 54 75 4.0 8.0 0.00 0.00 0.00 23 1021.6
20260502023009 54 42 7.0 8.0 0.00 0.00 0.00 24 1021.5